Retour au catalogue

ORBCOMM FM 22

ActifCommunicationsLEO
NORAD 25476·PAYLOAD·🇺🇸 United States

Lancé Sep 23, 1998 depuis Cape Canaveral Space Force Station

Loading…

Prochains Passages (prochaines 24 heures)

TLE

FraisSource: Space-Track

Époque: Sep 14, 2026, 01:55 UTC

1 25476U 98053B   26257.08042993  .00000546  00000-0  21856-3 0  9996
2 25476  45.0066 268.8675 0004751 311.5177  48.5264 14.39594864462656

Suivez ORBCOMM FM 22 en temps réel avec AllMySat

Download on the App Store